Search for airport 
image banner adimage banner ad
image banner ad

UGGT - Telavi

Located in Telavi, Georgia

ICAO - , IATA -

Data provided by Airmate  

General information

Coordinates: N41°57'12" E45°30'32"
Elevation is 1496 feet MSL.
Magnetic variation is 6° East
Rated:
View ratings: [VIEW]


View others Airports in Kakheti

Operational data

Open for public use
Current time UTC:
Current local time:
Weather at : UGTB - Tbilisi/Tbilisi ( 56 km )
METAR: UGTB 221230Z 17007KT 140V200 9999 OVC025 10/03 Q1022 NOSIG
TAF: TAF UGTB 221100Z 2212/2312 VRB02KT 9999 BKN030 TX13/2311Z TN04/2303Z TEMPO 2212/2216 15008KT PROB40 TEMPO 2222/2306 27008KT 4500 BR OVC020 BECMG 2306/2308 31018KT NSC TEMPO 2310/2312 32024G34KT
View NOTAMs / SUP AIP / TFR affecting this airport [VIEW]
Communications frequencies: [VIEW]

Runways:

RWY identifierQFULength (ft)Width (ft)SurfaceLDA (ft)
10102°377382CONC+ASPH3773
28282°377382CONC+ASPH3773

Airport contact information

Address: Telavi Georgia

Satellite view of UGGT